Bodensee (Kressbronn): 4,4°C  -  Teich der Wetterzentrale Bad Schussenried: 5,0°C  
22.01.2020Höhe
ü. NN
ZeitTemperatur (°C)Nieder-
schlag
Luft-
feuchte
Luft-
druck
Wind
StationaktuellMinimumMaximumaktuellMaximum
Aldingen654 m01:41-7,2-7,2 (07:47)-5,7 (15:22)0,0 l/m²92%1039,10,0 km/h (0 Bft) W-SW7,4 km/h (2 Bft) W-NW (13:16)
Allmendingen541 m01:40-2,9-3,0 (23:50)-2,9 (14:25)0,0 l/m²93%1037,94,8 km/h (1 Bft) O-NO20,9 km/h (4 Bft) O-NO (04:10)
Altshausen574 m01:40-4,2-4,2 (00:56)-3,8 (00:00)0,0 l/m²86%1036,66,4 km/h (2 Bft) O-NO8,0 km/h (2 Bft) O (00:39)
Amstetten-Reutti663 m01:40-3,7-3,7 (01:40)-3,5 (13:55)0,0 l/m²96%1037,49,7 km/h (2 Bft) O-SO30,6 km/h (5 Bft) O (02:10)
Amtzell-Grenis677 m01:40-5,1-5,2 (00:05)-4,9 (00:55)0,0 l/m²79%1039,01,6 km/h (1 Bft) O1,6 km/h (1 Bft) O (00:00)
Aulendorf570 m01:40-4,2-4,3 (01:18)-3,7 (00:00)0,0 l/m²94%1037,40,0 km/h (0 Bft) NO4,8 km/h (1 Bft) N-NO (01:25)
Bad Krozingen233 m01:40-3,0-3,1 (06:55)-2,1 (15:50)0,0 l/m²94%1038,51,6 km/h (1 Bft) N8,2 km/h (2 Bft) N-NO (16:50)
Bad Saulgau595 m01:40-4,1-4,1 (01:00)-3,9 (14:10)0,0 l/m²94%1036,60,0 km/h (0 Bft) S17,7 km/h (3 Bft) S-SW (05:45)
Bad Saulgau-Lampertsweiler627 m01:40-4,5-4,6 (01:35)-4,0 (00:00)0,0 l/m²91%1040,11,6 km/h (1 Bft) NO6,4 km/h (2 Bft) NO (01:35)
Bad Schussenried572 m01:40-3,6-3,6 (01:10)-3,2 (00:00)0,0 l/m²96%1036,20,0 km/h (0 Bft) NO3,2 km/h (1 Bft) NO (01:35)
Bergatreute615 m01:40-4,5-4,5 (01:40)-4,1 (00:45)0,0 l/m²97%1037,60,0 km/h (0 Bft) O-SO9,7 km/h (2 Bft) S-SO (00:45)
Biberach (Riss), Boehringer533 m01:50-3,4-3,5 (01:50)-2,9 (00:20)0,0 l/m²98%1035,34,0 km/h (1 Bft) N-NW11,5 km/h (2 Bft) S-SO (00:10)
Biberach (Riss), Realschule553 m01:40-3,8-3,9 (01:25)-3,6 (00:10)0,0 l/m²96%1038,83,2 km/h (1 Bft) SO11,3 km/h (2 Bft) O-SO (01:20)
Burgrieden523 m01:40-3,2-3,2 (00:35)-3,0 (00:00)0,0 l/m²90%1037,90,0 km/h (0 Bft) O8,0 km/h (2 Bft) O (00:00)
Burgrieden-Hochstetten510 m01:40-2,8-3,0 (01:05)-2,8 (02:00)0,0 l/m²94%1038,24,8 km/h (1 Bft) O-SO17,7 km/h (3 Bft) O (04:40)
Ebersbach579 m01:40-3,8-3,8 (00:30)-3,6 (00:00)0,0 l/m²96%1038,50,0 km/h (0 Bft) NO8,0 km/h (2 Bft) O (00:20)
Ebersbach-Boos605 m01:40-4,2-4,3 (00:45)-4,0 (00:10)0,0 l/m²97%1038,30,0 km/h (0 Bft) NO0,0 km/h (0 Bft) O-NO (00:00)
Ebersbach-Menzenweiler661 m01:40-4,4-4,4 (01:15)-4,1 (00:05)0,0 l/m²98%1038,54,8 km/h (1 Bft) NO8,0 km/h (2 Bft) O (00:25)
Erlenmoos645 m01:40-3,6-3,7 (01:05)-3,3 (00:00)0,0 l/m²93%1038,04,8 km/h (1 Bft) SO8,0 km/h (2 Bft) O (01:00)
Ertingen569 m01:40-3,9-3,9 (01:10)-3,6 (00:00)0,0 l/m²95%1037,86,4 km/h (2 Bft) N-NO6,4 km/h (2 Bft) N-NO (00:00)
Friedrichshafen405 m01:40-2,1-2,1 (08:20)-2,0 (14:45)0,0 l/m²91%1038,511,3 km/h (2 Bft) N-NO19,3 km/h (3 Bft) NO (22:05)
Günzburg443 m01:40-2,5-2,5 (01:20)-2,2 (00:05)0,0 l/m²90%1035,40,0 km/h (0 Bft) O-NO9,7 km/h (2 Bft) NO (00:35)
Hochdorf-Appendorf537 m01:40-3,9-3,9 (01:30)-3,6 (01:00)0,0 l/m²78%1037,63,2 km/h (1 Bft) N-NO11,3 km/h (2 Bft) N-NO (01:25)
Höchsten802 m01:40-5,8-6,3 (00:25)-4,7 (01:05)0,0 l/m²92%1036,10,0 km/h (0 Bft) NW6,4 km/h (2 Bft) N (00:00)
Horgenzell618 m01:40-4,7-4,7 (01:25)-4,4 (01:05)0,0 l/m²95%1036,73,2 km/h (1 Bft) N12,9 km/h (3 Bft) NO (00:10)
Hoßkirch632 m01:40-4,7-4,7 (00:55)-4,3 (00:00)0,0 l/m²95%1036,96,4 km/h (2 Bft) O-SO9,7 km/h (2 Bft) O (01:35)
Isny, Am Dreifingerbach695 m01:40-7,0-7,3 (01:30)-6,0 (00:00)0,0 l/m²93%1037,40,0 km/h (0 Bft) O-NO0,0 km/h (0 Bft) O-NO (01:40)
Isny, Weidachweg706 m01:40-7,0-7,1 (01:40)-6,2 (00:00)0,0 l/m²89%1039,63,2 km/h (1 Bft) N6,4 km/h (2 Bft) N (00:20)
Kappel-Grafenhausen163 m01:35-3,2-3,2 (07:50)-2,7 (14:50)0,0 l/m²92%1036,00,0 km/h (0 Bft) N14,5 km/h (3 Bft) N (15:20)
Kirchberg an der Iller584 m01:40-3,1-3,1 (20:10)-2,9 (02:00)0,0 l/m²87%1026,30,0 km/h (0 Bft) W-NW9,0 km/h (2 Bft) NW (04:50)
Kißlegg-Staibshof709 m01:40-4,8-5,0 (01:00)-4,8 (00:00)0,0 l/m²96%1038,00,0 km/h (0 Bft) O0,0 km/h (0 Bft) NO (00:00)
Kressbronn398 m01:42-2,1-3,0 (00:00)-2,1 (01:36)0,0 l/m²89%1037,20,0 km/h (0 Bft) N-NW9,7 km/h (2 Bft) N-NW (00:26)
Kreuzthal-Steinberg-Alpe930 m01:40-2,2-3,2 (01:00)-1,7 (01:20)0,0 l/m²100%1036,00,0 km/h (0 Bft) O4,0 km/h (1 Bft) O-SO (01:10)
Kreuzthal-Steinberggipfel1040 m01:401,90,7 (00:50)2,2 (01:40)-51%1036,02,9 km/h (1 Bft) N-NW11,9 km/h (3 Bft) W-SW (00:20)
Kristberg im Montafon (AT)1425 m01:415,04,3 (00:11)5,0 (01:40)0,0 l/m²31%1041,911,9 km/h (3 Bft) N-NO11,9 km/h (3 Bft) N (01:36)
Laupheim500 m01:40-3,3-3,3 (00:45)-3,1 (00:00)0,0 l/m²92%1037,36,4 km/h (2 Bft) O8,0 km/h (2 Bft) S-SO (00:05)
Leutkirch-Heggelbach670 m01:40-4,8-4,8 (01:30)-4,4 (00:00)0,0 l/m²94%1037,30,0 km/h (0 Bft) S-SO0,0 km/h (0 Bft) N (00:00)
Lindau-Insel420 m01:40-1,4-1,5 (08:25)-1,2 (14:35)0,0 l/m²88%1037,80,0 km/h (0 Bft) N-NO12,9 km/h (3 Bft) W (12:25)
Lindau-Stadt412 m01:40-1,7-1,8 (08:15)-1,7 (12:30)0,0 l/m²89%1038,03,2 km/h (1 Bft) NO12,9 km/h (3 Bft) W (13:00)
Maierhöfen im Allgäu733 m01:40-7,2-7,3 (00:50)-6,7 (00:00)0,0 l/m²92%1037,91,6 km/h (1 Bft) O-SO3,2 km/h (1 Bft) O-SO (01:05)
Maselheim543 m01:40-3,9-4,0 (01:40)-3,7 (14:05)0,0 l/m²94%1038,03,2 km/h (1 Bft) O22,5 km/h (4 Bft) O-SO (02:00)
Maselheim-Sulmingen548 m01:40-3,7-3,8 (00:00)-3,6 (02:00)0,0 l/m²95%1039,34,8 km/h (1 Bft) O17,7 km/h (3 Bft) O (03:45)
Mietingen-Baltringen528 m01:40-3,3-3,4 (00:05)-3,1 (00:45)0,0 l/m²92%1039,94,8 km/h (1 Bft) SO6,4 km/h (2 Bft) SO (00:00)
Mindelheim-Apfeltrach620 m01:41-3,5-3,5 (01:34)-3,2 (00:00)0,0 l/m²93%1038,03,2 km/h (1 Bft) S-SO8,0 km/h (2 Bft) SO (00:03)
Mittelbiberach577 m01:43-4,0-4,1 (00:21)-3,8 (01:00)0,0 l/m²94%1038,93,2 km/h (1 Bft) N8,0 km/h (2 Bft) O (00:10)
Neresheim552 m01:00-3,8-3,8 (01:00)-3,6 (00:00)0,0 l/m²98%1035,26,5 km/h (2 Bft) S6,5 km/h (2 Bft) S (01:00)
Neukirch570 m01:40-3,4-3,8 (07:55)-3,4 (15:05)0,0 l/m²94%1038,08,0 km/h (2 Bft) N-NO17,7 km/h (3 Bft) O-NO (06:20)
Ochsenhausen, Birkenstraße613 m01:40-3,6-3,6 (01:15)-3,3 (14:05)0,0 l/m²89%1038,30,0 km/h (0 Bft) NO0,0 km/h (0 Bft) N-NW (02:00)
Ochsenhausen, Unt. Wiesen575 m01:40-3,9-4,1 (00:30)-3,7 (00:00)0,0 l/m²95%1039,411,3 km/h (2 Bft) O-NO11,3 km/h (2 Bft) O (01:40)
Opfenbach-Göritz561 m01:40-3,9-4,2 (01:00)-3,9 (01:18)0,0 l/m²89%1036,20,0 km/h (0 Bft) S3,2 km/h (1 Bft) N (01:09)
Ostrach619 m01:40-3,3-3,3 (01:30)-2,9 (00:00)0,0 l/m²95%1036,23,2 km/h (1 Bft) O-NO8,0 km/h (2 Bft) O-NO (01:20)
Ravensburg, Goethestraße428 m01:50-2,8-2,9 (01:50)-2,3 (00:00)0,0 l/m²92%1037,56,4 km/h (2 Bft) NO11,3 km/h (2 Bft) NO (00:05)
Ravensburg, Springerstraße441 m01:40-2,5-2,6 (00:45)-2,2 (00:00)0,0 l/m²78%1035,20,0 km/h (0 Bft) W-SW2,3 km/h (1 Bft) W-SW (01:15)
Ravensburg-Wernsreute511 m01:40-3,6-3,6 (08:20)-3,1 (14:55)0,0 l/m²95%1040,64,8 km/h (1 Bft) NO24,1 km/h (4 Bft) N (20:10)
Reichenbach an der Fils343 m01:40-3,6-3,6 (01:30)-2,7 (00:00)0,0 l/m²87%1039,61,6 km/h (1 Bft) O-NO4,8 km/h (1 Bft) O (00:05)
Reinstetten559 m01:40-3,6-3,7 (01:10)-3,4 (00:05)0,0 l/m²95%1038,36,4 km/h (2 Bft) SO11,3 km/h (2 Bft) O (01:00)
Riedlingen530 m01:40-3,7-3,8 (01:05)-3,3 (00:00)0,0 l/m²94%1037,90,0 km/h (0 Bft) SO4,8 km/h (1 Bft) SO (01:35)
Rißtissen489 m01:40-2,4-2,4 (01:25)-2,1 (00:00)0,0 l/m²93%1035,30,0 km/h (0 Bft) NO6,4 km/h (2 Bft) O-NO (01:20)
Rottweil-Hausen681 m01:39-5,4-5,4 (00:36)-4,3 (00:00)0,0 l/m²90%1038,23,2 km/h (1 Bft) SW3,2 km/h (1 Bft) N (00:00)
Schemmerhofen520 m01:40-3,1-3,1 (00:20)-2,8 (00:00)0,0 l/m²96%1037,64,8 km/h (1 Bft) NO8,0 km/h (2 Bft) S-SO (00:15)
Silbertal im Montafon (AT)884 m01:39-2,4-3,3 (00:05)-2,5 (01:35)0,0 l/m²95%1041,80,0 km/h (0 Bft) NW1,8 km/h (1 Bft) N (00:06)
Tettnang466 m01:40-2,9-3,3 (00:00)-2,9 (01:30)0,0 l/m²92%1037,90,0 km/h (0 Bft) N-NO6,4 km/h (2 Bft) N-NO (01:00)
Tuttlingen662 m01:36-6,8-6,8 (01:11)-6,2 (00:01)0,0 l/m²77%1035,40,0 km/h (0 Bft) NO0,0 km/h (0 Bft) S-SW (00:01)
Tuttlingen, Möhringer-Vorstadt711 m01:40-5,8-5,8 (01:30)-5,2 (14:55)0,0 l/m²94%1037,50,0 km/h (0 Bft) O-SO12,9 km/h (3 Bft) O (02:05)
Ummendorf547 m01:40-3,7-4,0 (01:10)-3,6 (00:15)0,0 l/m²87%1039,19,7 km/h (2 Bft) O-NO11,3 km/h (2 Bft) O (01:05)
Ummendorf-Fischbach558 m01:40-4,1-4,2 (00:15)-4,0 (00:00)0,0 l/m²87%1038,84,8 km/h (1 Bft) O11,3 km/h (2 Bft) S (00:00)
Waldburg707 m01:40-5,0-5,0 (01:10)-4,9 (00:00)0,0 l/m²94%1037,20,0 km/h (0 Bft) N6,4 km/h (2 Bft) N (00:25)
Waltenhofen im Allgäu720 m01:05-6,7-6,7 (01:05)-6,2 (00:00)0,0 l/m²92%1038,10,0 km/h (0 Bft) SW12,9 km/h (3 Bft) SW (10:00)
Wangen, Hans-Schnitzer-Weg569 m01:40-3,2-3,6 (00:10)-3,2 (01:25)0,0 l/m²67%1036,40,0 km/h (0 Bft) N3,2 km/h (1 Bft) N (00:10)
Wangen, Südring548 m01:39-3,3-3,7 (01:00)-3,3 (01:29)0,0 l/m²92%1037,34,7 km/h (1 Bft) NO9,7 km/h (2 Bft) N (01:00)
Weingarten500 m01:40-3,3-3,4 (01:30)-2,9 (00:10)0,0 l/m²92%1037,93,2 km/h (1 Bft) S-SO9,7 km/h (2 Bft) O (00:30)
Winterlingen785 m01:15-8,5-8,5 (01:15)-7,2 (00:00)0,0 l/m²93%1037,81,8 km/h (1 Bft) NO2,5 km/h (1 Bft) S-SO (00:55)

Werbung
niederschlagsdatenbank | info | login - erfassung

Sollten Sie Interesse haben, an der Niederschlagsdatenbank teilzunehmen, finden Sie > hier < weitere Informationen.

Niederschlagsdaten der Station Münsingen-Rietheim - In der Lise 20

Uwe Deppe

Niederschlagsstation aufgenommen ins Stationsnetz der Wetterwarte Süd am 01.09.2008
Monat: .
Anmerkung:0,0 = nicht messbarer Niederschlag
 -  = kein Niederschlag

Stationsdaten

Höhe

750 m

Lage

Auf Google Maps ansehen

Beschreibung

Mittlere Schwäbische Alb Kreis Reutlingen - Stadt Münsingen - Ortsteil Rietheim - Gewann Lichse Standort: 48 Grad 26 Minuten nördliche Breite, 9 Grad 27 Minuten östliche Länge, 750 Meter ü. NN.

Die Station steht bei uns im Garten. Das relativ neue Wohngebiet liegt im Gewann "Lichse" südwestlich oberhalb des alten Dorfkerns von Rietheim. Wir sind durch einen Hügel mit einer Höhe von 803mNN in Richtung WNW gegenüber entsprechenden Wetterlagen geschützt, was insbesondere auf die Windmessungen - sowohl auf die Windgeschwindigkeit als auch auf die Windrichtung - Auswirkungen hat. Rund um die Station stehen in lockerem Abstand wenige Häuser, geringster Abstand etwa 8 Meter, ansonsten sind wir von Wiesen und Äckern umgeben. Die Station ist seit Ende 2004 in Betrieb.
< April 2019Juni 2019 >

Mai 2019

TagNiederschlagBemerkung
01.-
02.1,0
Regen
03.0,8
Regen
04.6,6
Schneereste vornehmlich auf Dächern, nicht am Boden.
Regen Schneeregen Schnee
05.-
Schnee Graupel
Schneehöhe: Reste
06.-
07.0,2
Regen
08.11,6
Regen
09.11,8
Regen
10.2,0
Regen
11.20,8
Regen
12.-
13.-
14.-
15.-
16.-
17.-
18.4,2
Regen
19.7,4
Regen
20.54,2
Regen
21.37,0
Regen
22.-
23.-
24.1,0
Regen
25.0,8
Regen
26.-
27.8,2
Regen
28.1,0
Regen
29.0,4
Regen
30.-
31.-
Gesamt:169,0 
Die Spalten "Tag" und "Niederschlag" lassen sich durch Klicken auf den Spaltenkopf sortieren.
Die Angaben sind in l/m².

< April 2019Juni 2019 >


Monats- und Jahresniederschlag


Wetterbeobachtungen Legende:

  • Regen
  • Nieselregen
  • Schneeregen
  • Schnee
  • Graupel
  • Eiskörner
  • Hagel
  • Bodennebel
  • Gewitter
  • Nebelnässe
  • Schneegriesel

Grafische Darstellung der Niederschläge der Station Münsingen-Rietheim Mai 2019

 
wetterstationen
wetterstationen
- derzeit 80 Stationen
niederschlagsdatenbank
wetterstationen
- kartographische Darstellung
niederschlagsdatenbank
niederschlagsstationen
- derzeit 111 Stationen
niederschlagsdatenbank
niederschlagsstationen
- kartographische Darstellung
 
 
Di. 7.30 Uhr - Mi. 7.30 Uhr (MEZ)
1.Gutenzell
Kleinser Berg 1
3,0 l/m²
 
  treffpunkt & service
--- Anzeigen --------------------------------
zugriffe:
insgesamt: 45.733.413
aktueller monat: 221.973
heute: 98
momentan online: 2
 
 
monatshöchstwert: 653.625
vorheriger monat: 318.382
gestern: 12.706
tageshöchstwert: 51.297
 
wetterwarte süd
 
konradstraße 3
info@wetterwarte-sued.com
roland roth
 
88427 bad schussenried